Pineville, WV

1:04 AM EDT on July 26, 2017 (GMT -0400)
Pineville

Weather History for KI16 - October, 2012

Change the Weather History Date:

Monday, October 22, 2012

  Actual Average (KBKW) Record (KBKW)
Temperature  
Mean Temperature 58 °F -  
Max Temperature 78 °F 62 °F 80 °F (1909)
Min Temperature 38 °F 41 °F 10 °F (1913)
Degree Days  
Heating Degree Days 7    
Growing Degree Days 8 (Base 50)    
Moisture  
Dew Point 47 °F    
Average Humidity 80    
Maximum Humidity 100    
Minimum Humidity 39    
Precipitation  
Precipitation 0.00 in - - ()
Sea Level Pressure  
Sea Level Pressure 30.25 in    
Wind  
Wind Speed - (North)    
Max Wind Speed -    
Max Gust Speed -    
Visibility 9 miles    
Events      
Averages and records for this station are not official NWS values.
T = Trace of Precipitation, MM = Missing Value Source: NWS Daily Summary

Daily Weather History Graph

Daily Weather History Graph

Search for Another Location

Airport or City:

Trip Planner

Search our weather history database for the weather conditions in past years. The results will help you decide how hot, cold, wet, or windy it might be!

Date:

Astronomy

Oct. 22, 2012 Rise Set
Actual Time 7:41 AM EDT 6:39 PM EDT
Civil Twilight 7:14 AM EDT 7:05 PM EDT
Nautical Twilight 6:44 AM EDT 7:36 PM EDT
Astronomical Twilight 6:14 AM EDT 8:06 PM EDT
Moon 2:38 PM EDT (10/22) 12:35 AM EDT (10/22)
Length of Visible Light 11h 50m
Length of Day
10h 57m
First Quarter, 56% of the Moon is Illuminated
Oct 22
First Quarter
Oct 29
Full
Nov 6
Last Quarter
Nov 13
New
Nov 20
First Quarter

Hourly Weather History & Observations

Time (EDT) Temp. Dew Point Humidity Pressure Visibility Wind Dir Wind Speed Gust Speed Precip Events Conditions
12:15 AM 42.4 °F 42.1 °F 99% 30.23 in 10.0 mi North - - N/A   Clear
12:35 AM 42.3 °F 42.1 °F 99% 30.23 in 10.0 mi North - - N/A   Clear
12:55 AM 41.9 °F 41.5 °F 99% 30.23 in 10.0 mi North - - N/A   Clear
1:15 AM 41.9 °F 41.5 °F 99% 30.23 in 7.0 mi North - - N/A   Clear
1:35 AM 41.7 °F 41.4 °F 99% 30.23 in 7.0 mi North - - N/A   Clear
1:55 AM 41.5 °F 41.4 °F 99% 30.23 in 7.0 mi North - - N/A   Clear
2:15 AM 41.2 °F 41.0 °F 99% 30.23 in 7.0 mi North - - N/A   Clear
2:35 AM 41.0 °F 41.0 °F 100% 30.23 in 7.0 mi North - - N/A   Clear
2:55 AM 41.0 °F 41.0 °F 100% 30.24 in 7.0 mi North - - N/A   Clear
3:15 AM 40.6 °F 40.6 °F 100% 30.24 in 7.0 mi North - - N/A   Clear
3:55 AM 40.3 °F 40.3 °F 100% 30.24 in 7.0 mi North - - N/A   Clear
4:15 AM 40.1 °F 40.1 °F 100% 30.24 in 7.0 mi North - - N/A   Clear
4:35 AM 39.9 °F 39.9 °F 100% 30.25 in 7.0 mi North - - N/A   Clear
5:15 AM 39.4 °F 39.4 °F 100% 30.26 in 7.0 mi North - - N/A   Clear
5:55 AM 39.4 °F 39.4 °F 100% 30.27 in 5.0 mi North - - N/A   Clear
6:15 AM 39.2 °F 39.2 °F 100% 30.28 in 7.0 mi North - - N/A   Clear
6:35 AM 39.2 °F 39.2 °F 100% 30.28 in 5.0 mi North - - N/A   Clear
6:55 AM 38.8 °F 38.8 °F 100% 30.29 in 7.0 mi North - - N/A   Clear
7:15 AM 39.0 °F 39.0 °F 100% 30.29 in 7.0 mi North - - N/A   Clear
7:35 AM 38.7 °F 38.7 °F 100% 30.30 in 5.0 mi North - - N/A   Clear
8:15 AM 38.8 °F 38.8 °F 100% 30.30 in 5.0 mi North - - N/A   Clear
8:35 AM 39.4 °F 39.4 °F 100% 30.30 in 7.0 mi North - - N/A   Clear
9:15 AM 44.8 °F 44.8 °F 100% 30.30 in 10.0 mi North - - N/A   Clear
9:35 AM 47.3 °F 46.4 °F 97% 30.30 in 10.0 mi North - - N/A   Clear
10:15 AM 52.9 °F 49.3 °F 88% 30.30 in 10.0 mi North - - N/A   Clear
10:35 AM 56.1 °F 50.5 °F 82% 30.30 in 10.0 mi North - - N/A   Clear
10:55 AM 61.2 °F 50.0 °F 67% 30.30 in 10.0 mi North - - N/A   Clear
11:35 AM 65.8 °F 49.1 °F 55% 30.29 in 10.0 mi North - - N/A   Clear
11:55 AM 67.5 °F 49.1 °F 52% 30.29 in 10.0 mi North - - N/A   Clear
12:15 PM 70.0 °F 49.6 °F 48% 30.29 in 10.0 mi North - - N/A   Clear
12:35 PM 72.0 °F 49.1 °F 44% 30.28 in 10.0 mi North - - N/A   Clear
12:55 PM 72.7 °F 49.5 °F 44% 30.27 in 10.0 mi North - - N/A   Clear
1:15 PM 74.3 °F 51.1 °F 44% 30.25 in 10.0 mi North - - N/A   Clear
1:35 PM 75.0 °F 50.9 °F 43% 30.25 in 10.0 mi North - - N/A   Clear
1:55 PM 75.6 °F 50.9 °F 42% 30.24 in 10.0 mi North - - N/A   Clear
2:15 PM 76.1 °F 50.7 °F 41% 30.24 in 10.0 mi North - - N/A   Clear
2:35 PM 76.1 °F 50.5 °F 41% 30.23 in 10.0 mi North - - N/A   Clear
2:55 PM 76.8 °F 51.1 °F 40% 30.22 in 10.0 mi North - - N/A   Clear
3:15 PM 77.4 °F 50.9 °F 39% 30.21 in 10.0 mi North - - N/A   Clear
3:55 PM 78.1 °F 51.6 °F 40% 30.21 in 10.0 mi North - - N/A   Clear
4:15 PM 77.5 °F 50.5 °F 39% 30.21 in 10.0 mi North - - N/A   Clear
4:35 PM 77.0 °F 52.5 °F 42% 30.21 in 10.0 mi North - - N/A   Clear
4:55 PM 74.1 °F 53.4 °F 48% 30.21 in 10.0 mi North - - N/A   Clear
5:15 PM 68.2 °F 54.9 °F 62% 30.21 in 10.0 mi North - - N/A   Clear
5:35 PM 65.7 °F 55.4 °F 69% 30.21 in 10.0 mi North - - N/A   Clear
5:55 PM 63.9 °F 55.4 °F 74% 30.21 in 10.0 mi North - - N/A   Clear
6:15 PM 62.6 °F 55.4 °F 77% 30.22 in 10.0 mi North - - N/A   Clear
6:35 PM 61.2 °F 54.9 °F 80% 30.22 in 10.0 mi North - - N/A   Clear
7:15 PM 58.6 °F 54.1 °F 85% 30.23 in 10.0 mi North - - N/A   Clear
7:35 PM 57.4 °F 53.2 °F 86% 30.23 in 10.0 mi North - - N/A   Clear
7:55 PM 56.7 °F 53.1 °F 88% 30.23 in 10.0 mi North - - N/A   Clear
8:15 PM 55.9 °F 52.9 °F 89% 30.23 in 10.0 mi North - - N/A   Clear
8:35 PM 55.4 °F 52.3 °F 89% 30.23 in 10.0 mi North - - N/A   Clear
8:55 PM 54.7 °F 51.6 °F 89% 30.23 in 10.0 mi North - - N/A   Clear
9:15 PM 54.9 °F 52.2 °F 91% 30.23 in 10.0 mi North - - N/A   Clear
9:35 PM 54.5 °F 52.7 °F 94% 30.24 in 10.0 mi North - - N/A   Clear
9:55 PM 54.0 °F 51.8 °F 92% 30.23 in 10.0 mi North - - N/A   Clear
10:55 PM 52.7 °F 51.6 °F 96% 30.23 in 10.0 mi North - - N/A   Clear
11:15 PM 52.5 °F 51.3 °F 95% 30.23 in 10.0 mi North - - N/A   Clear
11:35 PM 52.0 °F 51.3 °F 97% 30.22 in 10.0 mi North - - N/A   Clear
11:55 PM 51.4 °F 50.5 °F 97% 30.22 in 10.0 mi North - - N/A   Clear